Location: Waco, TX
(31.5480°N, 97.1670°W)
Time: 21:44:32
(UTC-06:00)

ISS - Pass Details

Date: 17 February 2019
Orbit: 403 x 411 km, 51.6° (Epoch: 22 February)

Event Time Altitude Azimuth Distance (km) Brightness Sun altitude
Rises 17:17:20 0° 294° (WNW) 2,325 0.7 11.3°
Reaches altitude 10° 17:20:04 10° 270° (W) 1,463 0.6 10.8°
Maximum altitude 17:21:59 15° 234° (SW) 1,209 0.5 10.4°
Drops below altitude 10° 17:23:54 10° 197° (SSW) 1,460 -0.4 10.0°
Sets 17:26:38 0° 173° (S) 2,317 0.2 9.5°
